Location: Risskov
(56.1972°N, 10.2480°E)
Time: 23:04:17
(UTC+00:00)

Lacrosse 5 rocket - Pass Details

Date: 05 July 2020
Orbit: 465 x 631 km, 57.0° (Epoch: 14 August)

Event Time Altitude Azimuth Distance (km) Brightness Sun altitude
Rises 22:53:39 0° 286° (WNW) 2,747 5.2 -10.9°
Reaches altitude 10° 22:55:57 10° 285° (WNW) 1,820 4.3 -10.9°
Maximum altitude 23:00:03 72° 201° (SSW) 557 1.1 -11.0°
Drops below altitude 10° 23:03:53 10° 118° (ESE) 1,716 3.5 -11.0°
Sets 23:06:00 0° 116° (ESE) 2,573 4.4 -11.0°
